Location: Glencliff
(36.1226°N, 86.7183°W)
Time: 23:47:38
(UTC+00:00)

CZ-3 R/B - Pass Details

Date: 25 August 2019
Orbit: 332 x 10289 km, 28.4° (Epoch: 18 September)

Event Time Altitude Azimuth Distance (km) Brightness Sun altitude
Exits shadow 08:38:09 32° 213° (SSW) 7,025 5.3 -28.5°
Maximum altitude 08:51:11 46° 169° (S) 4,018 4.3 -26.5°
Drops below altitude 10° 09:01:50 10° 99° (E) 3,824 5.1 -24.7°
Sets 09:03:57 0° 92° (E) 4,296 5.6 -24.4°
